Change the Weather History Date:

Sunday, January 12, 2014

  Actual Average (KHTO) Record (KHTO)
Temperature  
Mean Temperature 44 °F -  
Max Temperature 48 °F 36 °F - (-1)
Min Temperature 37 °F 21 °F - (-1)
Degree Days  
Heating Degree Days 22    
Moisture  
Dew Point 35 °F    
Average Humidity 74    
Maximum Humidity 100    
Minimum Humidity 62    
Precipitation  
Precipitation 0.06 in - - ()
Sea Level Pressure  
Sea Level Pressure 29.72 in    
Wind  
Wind Speed 11 mph (West)    
Max Wind Speed 14 mph    
Max Gust Speed 31 mph    
Averages and records for this station are not official NWS values.
T = Trace of Precipitation, MM = Missing Value Source: NWS Daily Summary

Daily Weather History Graph

Daily Weather History Graph

Search for Another Location

Airport or City:

Trip Planner

Search our weather history database for the weather conditions in past years. The results will help you decide how hot, cold, wet, or windy it might be!

Date:

Astronomy

Jan. 12, 2014 Rise Set
Actual Time 7:11 AM EST 4:40 PM EST
Civil Twilight 6:41 AM EST 5:11 PM EST
Nautical Twilight 6:07 AM EST 5:45 PM EST
Astronomical Twilight 5:34 AM EST 6:18 PM EST
Moon 2:06 PM EST (1/12) 4:07 AM EST (1/12)
Length of Visible Light 10h 30m
Length of Day
9h 29m
Waxing Gibbous, 89% of the Moon is Illuminated
Jan 12
Waxing Gibbous
Jan 15
Full
Jan 24
Last Quarter
Jan 30
New
Feb 6
First Quarter

Hourly Weather History & Observations

Time (EST) Temp. Windchill Dew Point Humidity Pressure Visibility Wind Dir Wind Speed Gust Speed Precip Events Conditions
12:54 AM 48.9 °F - 48.0 °F 97% 29.42 in - SW 13.8 mph 31.1 mph N/A   Unknown
1:54 AM 48.0 °F - 46.9 °F 96% 29.42 in - SW 13.8 mph 25.3 mph 0.06 in   Unknown
2:54 AM 46.9 °F - 46.9 °F 100% 29.42 in - SW 12.7 mph 20.7 mph N/A   Unknown
3:54 AM 48.0 °F - 46.9 °F 96% 29.42 in - WSW 10.4 mph - N/A   Unknown
4:54 AM 45.0 °F 40.6 °F 42.1 °F 90% 29.43 in - West 8.1 mph - N/A   Unknown
5:54 AM 44.1 °F 39.5 °F 37.9 °F 79% 29.47 in - West 8.1 mph - N/A   Unknown
6:54 AM 43.0 °F 37.2 °F 37.0 °F 80% 29.51 in - West 10.4 mph - N/A   Unknown
7:54 AM 43.0 °F 38.2 °F 35.1 °F 74% 29.57 in - WNW 8.1 mph 17.3 mph N/A   Unknown
8:54 AM 42.1 °F 36.1 °F 34.0 °F 73% 29.62 in - West 10.4 mph - N/A   Unknown
9:54 AM 44.1 °F 38.1 °F 34.0 °F 68% 29.67 in - West 11.5 mph 19.6 mph N/A   Unknown
10:54 AM 43.0 °F 36.8 °F 33.1 °F 68% 29.69 in - West 11.5 mph 19.6 mph N/A   Unknown
11:54 AM 44.1 °F 38.1 °F 33.1 °F 65% 29.68 in - West 11.5 mph 18.4 mph N/A   Unknown
12:54 PM 44.1 °F 39.0 °F 32.0 °F 63% 29.72 in - West 9.2 mph 21.9 mph N/A   Unknown
1:54 PM 44.1 °F 38.6 °F 32.0 °F 63% 29.73 in - West 10.4 mph 21.9 mph N/A   Unknown
2:54 PM 44.1 °F 38.1 °F 32.0 °F 63% 29.77 in - West 11.5 mph 19.6 mph N/A   Unknown
3:54 PM 43.0 °F 36.8 °F 30.9 °F 62% 29.82 in - West 11.5 mph 18.4 mph N/A   Unknown
4:54 PM 41.0 °F 35.8 °F 30.9 °F 67% 29.88 in - WSW 8.1 mph - N/A   Unknown
5:54 PM 39.9 °F 33.4 °F 30.9 °F 70% 29.90 in - West 10.4 mph - N/A   Unknown
6:54 PM 39.9 °F 33.4 °F 30.0 °F 68% 29.94 in - West 10.4 mph - N/A   Unknown
7:54 PM 39.9 °F 33.9 °F 30.0 °F 68% 29.98 in - West 9.2 mph 18.4 mph N/A   Unknown
8:54 PM 39.9 °F 35.1 °F 28.9 °F 65% 30.01 in - West 6.9 mph - N/A   Unknown
9:54 PM 39.0 °F 34.8 °F 28.9 °F 67% 30.03 in - West 5.8 mph - N/A   Unknown
10:54 PM 39.0 °F 32.8 °F 28.9 °F 67% 30.03 in - West 9.2 mph - N/A   Unknown
11:54 PM 37.9 °F 32.1 °F 28.9 °F 70% 30.05 in - WSW 8.1 mph - N/A   Unknown